Regional Weather Roundup
Issued by NWS

Home | Current Version | Previous Version | Graphics & Text | Print | Product List | Glossary On
Versions: 1 2 3 4 5 6 7 8 9 10 11 12 13 14 15 16 17 18 19 20 21 22 23 24 25 26 27 28 29 30 31 32 33 34 35 36 37 38 39 40 41 42 43 44 45 46 47 48 49 50
000
ASUS43 KLSX 280410
RWRMO

WEATHER SUMMARY FOR MISSOURI
NATIONAL WEATHER SERVICE SPRINGFIELD MO
1100 PM CDT THU AUG 27 2015

NOTE: "FAIR" INDICATES FEW OR NO CLOUDS BELOW 12,000 FEET WITH NO
       SIGNIFICANT WEATHER AND/OR OBSTRUCTIONS TO VISIBILITY.
       CURRENT SKY AND/OR WEATHER CONDITIONS ARE NOT AVAILABLE FOR
       CHILLICOTHE AND FARMINGTON.

MOZ001>031-035>038-043-044-053-054-280500-
...NORTHERN AND WESTERN MISSOURI...

CITY           SKY/WX    TMP DP  RH WIND       PRES   REMARKS
KANSAS CTY INT CLOUDY    71  64  78 SE13      29.99F
KANSAS C DTWN  CLOUDY    73  65  75 SE7       29.98F
LEE`S SUMMIT   MOCLDY    70  64  81 S6        30.01F
ST JOSEPH      CLOUDY    70  65  84 SE10      29.97F
CHILLICOTHE      N/A     68  62  81 SE6       30.04F
KIRKSVILLE     MOCLDY    63  59  87 SE5       30.08R

$$
MOZ066>068-077>081-088>096-101>105-280500-
...SOUTHWEST MISSOURI...

CITY           SKY/WX    TMP DP  RH WIND       PRES   REMARKS
SPRINGFIELD    MOCLDY    68  61  78 SE10      30.06F
JOPLIN         PTCLDY    70  66  87 SE6       30.03F

$$
MOZ032>034-039>042-045>050-055>058-069>072-280500-
...CENTRAL MISSOURI...

CITY           SKY/WX    TMP DP  RH WIND       PRES   REMARKS
COLUMBIA       CLEAR     64  61  90 SE8       30.07S
JEFFERSON CITY CLEAR     65  61  87 SE8       30.06S
ROLLA          CLEAR     63  61  93 SE9       30.08S
SEDALIA        MOCLDY    66  60  81 SE7       30.05F
WHITEMAN AFB   PTCLDY    67  62  83 S5        30.03S
WARRENSBURG    MOCLDY    66  63  88 SE5       30.03S
OSAGE BEACH    CLEAR     64  59  82 CALM      30.08S

$$
MOZ051-052-059>065-280500-
...EAST CENTRAL MISSOURI...

CITY           SKY/WX    TMP DP  RH WIND       PRES   REMARKS
ST LOUIS INTL  PTCLDY    68  57  68 SE6       30.09F
SPIRIT OF STL  CLEAR     63  61  93 S5        30.08S
ST CHARLES     CLEAR     62  60  93 E6        30.08F

$$
MOZ072>076-082>087-097>100-106>115-280500-
...SOUTH CENTRAL AND SOUTHEAST MISSOURI...

CITY           SKY/WX    TMP DP  RH WIND       PRES   REMARKS
CAPE GIRARDEAU CLEAR     64  62  93 SE5       30.08F
FARMINGTON     CLEAR     63  59  88 CALM      30.12R
POPLAR BLUFF   CLEAR     63  60  90 CALM      30.07S
WEST PLAINS    CLEAR     64  57  78 CALM      30.12R

$$


USA.gov is the U.S. government's official web portal to all federal, state and local government web resources and services.